This is the latest recevied weather packets stored in our database for station/object W4CKA. If no packets are shown the sender has not sent any weather packets the latest 10 day(s).
| Time | Temp. | Humidity | Pressure | Rain* | Wind** | Luminosity | Snow |
|---|---|---|---|---|---|---|---|
| 1777576635 | 17.78° C | 44% | 1055.2 hPa | 0 mm | - | 654 W/m² | - |
| 1777576032 | 17.22° C | 47% | 1055.4 hPa | 0 mm | - | 650 W/m² | - |
| 1777575430 | 17.22° C | 44% | 1055.8 hPa | 0 mm | - | 699 W/m² | - |
| 1777574827 | 18.33° C | 44% | 1055.8 hPa | 0 mm | - | 650 W/m² | - |
| 1777574221 | 17.78° C | 46% | 1055.4 hPa | 0 mm | - | 710 W/m² | - |
| 1777573621 | 17.78° C | 48% | 1055.5 hPa | 0 mm | - | 656 W/m² | - |
| 1777573020 | 18.33° C | 52% | 1055.4 hPa | 0 mm | - | 685 W/m² | - |
| 1777572417 | 17.78° C | 49% | 1055.7 hPa | 0 mm | - | 683 W/m² | - |
| 1777571814 | 17.22° C | 51% | 1055.5 hPa | 0 mm | - | 705 W/m² | - |
| 1777571214 | 16.67° C | 51% | 1055.4 hPa | 0 mm | - | 681 W/m² | - |
| 1777570611 | 16.67° C | 54% | 1055.8 hPa | 0 mm | - | 685 W/m² | - |
| 1777570010 | 17.22° C | 52% | 1055.7 hPa | 0 mm | - | 674 W/m² | - |
| 1777569407 | 16.67° C | 57% | 1056 hPa | 0 mm | - | 675 W/m² | - |
| 1777568807 | 17.22° C | 55% | 1056.2 hPa | 0 mm | - | 656 W/m² | - |
| 1777568207 | 17.22° C | 58% | 1056.3 hPa | 0 mm | - | 651 W/m² | - |
| 1777567606 | 17.22° C | 58% | 1056.3 hPa | 0 mm | - | 198 W/m² | - |
| 1777567002 | 16.67° C | 55% | 1056.2 hPa | 0 mm | - | 664 W/m² | - |
| 1777566397 | 16.67° C | 65% | 1056.2 hPa | 0 mm | - | 760 W/m² | - |
| 1777565795 | 17.22° C | 62% | 1056.3 hPa | 0 mm | - | 721 W/m² | - |
| 1777565193 | 16.67° C | 62% | 1056.4 hPa | 0 mm | - | 734 W/m² | - |
| 1777564590 | 16.11° C | 62% | 1056.4 hPa | 0 mm | - | 755 W/m² | - |
| 1777563989 | 16.11° C | 62% | 1056.3 hPa | 0 mm | - | 641 W/m² | - |
| 1777563387 | 16.11° C | 61% | 1056.3 hPa | 0 mm | - | 226 W/m² | - |
| 1777562783 | 16.67° C | 66% | 1056.2 hPa | 0 mm | - | 349 W/m² | - |
| 1777562178 | 14.44° C | 67% | 1056.3 hPa | 0 mm | - | 303 W/m² | - |
* Rain latest hour (hover to see other rain measurements)
** Current wind speed in m/s (hover to see current wind gust speed)